Flag for Germany Weather past 2 weeks in Schwerin, Mecklenburg-Western Pomerania, Germany

Now
64 °F

Passing clouds.


Feels Like: 64 °F
Forecast: 54 / 60 °F
Wind: 6 mph from West

Location: Schwerin

Current Time: Jul 8, 2015 at 3:09:10 AM

Latest Report: Jul 8, 2015 at 2:00 AM


Visibility: 7 mi

Pressure: 29.61 "Hg

Humidity: 93%

Dew point: 62 °F

Location of SchwerinLocation

Historic Weather in Schwerin — Graph

°F

Schwerin temperature yesterday

Maximum temperature yesterday: 82 °F (at 4:00 PM)
Minimum temperature yesterday: 56 °F (at 6:00 AM)
Average temperature yesterday: 69 °F

Past Weeks' High & Low Weather Summary

 TemperatureHumidityPressure
High95 °F (Jul 4, 3:00 PM)98% (Jun 26, 3:00 AM)30.28 "Hg (Jun 26, 3:00 AM)
Low51 °F (Jun 23, 3:00 AM)29% (Jul 2, 4:00 PM)29.59 "Hg (Jul 8, 1:00 AM)
Average67 °F68%30.07 "Hg
* Reported Jun 23 1:00 AM — Jul 8 1:00 AM, Schwerin, Weather by CustomWeather, © 2015

Note: Actual official high and low records may vary slightly from our data, if they occured in-between our weather recording intervals... More about our weather records

Advertising

Schwerin weather history for previous 24 hours

 ConditionsComfort  
Time TempWeatherWind HumidityBarometerVisibility
1:00 AM
Wed, Jul 8
64 °FOvercast.5 mph95%29.59 "Hg6 mi
10:00 PM
Tue, Jul 7
69 °FOvercast.2 mph81%29.66 "Hg13 mi
9:00 PM70 °FOvercast.3 mph74%29.67 "Hg17 mi
8:00 PM76 °FOvercast.3 mph56%29.67 "Hg22 mi
7:00 PM78 °FOvercast.2 mph52%29.69 "Hg19 mi
6:00 PM80 °FPartly sunny.2 mph43%29.72 "Hg22 mi
5:00 PM81 °FOvercast.5 mph42%29.76 "Hg22 mi
4:00 PM82 °FOvercast.7 mph37%29.79 "Hg22 mi
3:00 PM82 °FOvercast.5 mph39%29.80 "Hg15 mi
2:00 PM80 °FOvercast.5 mph40%29.83 "Hg19 mi
1:00 PM78 °FSunny.5 mph44%29.87 "Hg19 mi
12:00 PM76 °FScattered clouds.5 mph42%29.90 "Hg11 mi
10:00 AM70 °FScattered clouds.6 mph58%29.94 "Hg9 mi
9:00 AM66 °FScattered clouds.5 mph67%29.96 "Hg13 mi
8:00 AM62 °FScattered clouds.2 mph75%29.98 "Hg9 mi
7:00 AM59 °FOvercast.1 mph80%30.00 "Hg19 mi
6:00 AM56 °FScattered clouds.1 mph87%30.01 "Hg17 mi
4:00 AM56 °FPassing clouds.1 mph88%30.03 "Hg19 mi
3:00 AM58 °FOvercast.1 mph80%30.05 "Hg25 mi
Weather by CustomWeather, © 2015

See weather overviewHow to use our weather pages